Check out our new BloomSky Weather System.

Active alerts

Houston, TX
  Details for Houston, TX Dense Fog Advisory


Thunder radar  blitzortung!


Rain radar more information rain snow radar


Visit our other weather sites:

Template documentation
and downloads

And another site



Weather Underground History page Text

Daily Summary for June 29, 2017 Units:  Metric    English   Both
« Previous Day
Next Day »
Daily Weekly Monthly Yearly Custom
  High: Low: Average:
Temperature: 33.7 °C 23.6 °C 28.7 °C
Dew Point: 27 °C 22.7 °C 25 °C
Humidity: 97 % 60 % 81 %
Wind Speed: 19.3 km/h 0 km/h 5.3 km/h
Wind Gust: 27.4 km/h - -
Wind:- - SSE
Pressure: 1012.1 hPa 1010 hPa -
Precipitation: 0 mm    
Historical Graphs
 
 
Tabular Data for June 29, 2017
Time Temperature Dew Point Pressure Wind Wind Speed Wind Gust Humidity Rainfall Rate (Hourly)
00:03 25.6 °C 23.5 °C 1011.1 hPa SE 1.6 km/h 8 km/h 88 % 0 mm
00:08 25.5 °C 23.4 °C 1011.1 hPa SE 3.2 km/h 11.3 km/h 88 % 0 mm
00:14 25.5 °C 23.4 °C 1011.1 hPa ESE 1.6 km/h 11.3 km/h 88 % 0 mm
00:19 25.5 °C 23.4 °C 1011.1 hPa ENE 6.4 km/h 11.3 km/h 88 % 0 mm
00:24 25.4 °C 23.3 °C 1011.1 hPa East 1.6 km/h 9.7 km/h 88 % 0 mm
00:29 25.4 °C 23.3 °C 1011.4 hPa East 3.2 km/h 8 km/h 88 % 0 mm
00:34 25.4 °C 23.3 °C 1011.4 hPa Calm   8 km/h 88 % 0 mm
00:36 25.4 °C 23.3 °C 1011.4 hPa Calm   6.4 km/h 88 % 0 mm
00:41 25.4 °C 23.3 °C 1011.4 hPa East 1.6 km/h 6.4 km/h 88 % 0 mm
00:46 25.5 °C 23.4 °C 1011.4 hPa Calm   6.4 km/h 88 % 0 mm
00:51 25.6 °C 23.5 °C 1011.4 hPa ESE 3.2 km/h 6.4 km/h 88 % 0 mm
00:56 25.6 °C 23.5 °C 1011.4 hPa Calm   6.4 km/h 88 % 0 mm
01:01 25.6 °C 23.5 °C 1011.4 hPa Calm   6.4 km/h 88 % 0 mm
01:06 25.6 °C 23.5 °C 1011.4 hPa Calm   8 km/h 88 % 0 mm
01:11 25.6 °C 23.5 °C 1011.4 hPa Calm   8 km/h 88 % 0 mm
01:17 25.6 °C 23.5 °C 1011.4 hPa Calm   8 km/h 88 % 0 mm
01:22 25.5 °C 23.4 °C 1011.4 hPa East 1.6 km/h 3.2 km/h 88 % 0 mm
01:27 25.4 °C 23.3 °C 1011.4 hPa ESE 1.6 km/h 4.8 km/h 88 % 0 mm
01:32 25.4 °C 23.3 °C 1011.4 hPa Calm   4.8 km/h 88 % 0 mm
01:37 25.4 °C 23.3 °C 1011.4 hPa East 1.6 km/h 4.8 km/h 88 % 0 mm
01:42 25.4 °C 23.5 °C 1011.4 hPa Calm   3.2 km/h 89 % 0 mm
01:47 25.3 °C 23.4 °C 1011.4 hPa Calm   3.2 km/h 89 % 0 mm
01:52 25.3 °C 23.4 °C 1011.1 hPa Calm   3.2 km/h 89 % 0 mm
01:57 25.3 °C 23.4 °C 1011.1 hPa Calm   3.2 km/h 89 % 0 mm
02:02 25.2 °C 23.3 °C 1011.1 hPa Calm   3.2 km/h 89 % 0 mm
02:07 25.1 °C 23.2 °C 1011.1 hPa Calm   3.2 km/h 89 % 0 mm
02:12 25.1 °C 23.2 °C 1011.1 hPa Calm   3.2 km/h 89 % 0 mm
02:17 25 °C 23.1 °C 1011.1 hPa East 1.6 km/h 3.2 km/h 89 % 0 mm
02:22 24.9 °C 23 °C 1011.1 hPa Calm   3.2 km/h 89 % 0 mm
02:27 24.9 °C 23 °C 1011.1 hPa Calm   3.2 km/h 89 % 0 mm
02:32 24.9 °C 23 °C 1011.1 hPa Calm   4.8 km/h 89 % 0 mm
02:37 24.9 °C 23 °C 1010.7 hPa Calm   4.8 km/h 89 % 0 mm
02:42 24.8 °C 22.9 °C 1010.7 hPa Calm   4.8 km/h 89 % 0 mm
02:47 24.8 °C 23 °C 1010.7 hPa Calm   1.6 km/h 90 % 0 mm
02:52 24.7 °C 22.9 °C 1010.4 hPa Calm   1.6 km/h 90 % 0 mm
02:57 24.6 °C 22.8 °C 1010.4 hPa Calm   1.6 km/h 90 % 0 mm
03:02 24.6 °C 22.8 °C 1010.4 hPa Calm   1.6 km/h 90 % 0 mm
03:07 24.6 °C 22.8 °C 1010 hPa Calm   1.6 km/h 90 % 0 mm
03:12 24.5 °C 22.9 °C 1010 hPa Calm   1.6 km/h 91 % 0 mm
03:17 24.5 °C 22.9 °C 1010 hPa Calm   3.2 km/h 91 % 0 mm
03:22 24.4 °C 22.8 °C 1010 hPa Calm   3.2 km/h 91 % 0 mm
03:27 24.4 °C 23 °C 1010 hPa Calm   3.2 km/h 92 % 0 mm
03:32 24.4 °C 23 °C 1010 hPa Calm   3.2 km/h 92 % 0 mm
03:37 24.4 °C 23 °C 1010 hPa East 1.6 km/h 3.2 km/h 92 % 0 mm
03:42 24.4 °C 23 °C 1010 hPa ENE 1.6 km/h 4.8 km/h 92 % 0 mm
03:47 24.3 °C 22.9 °C 1010 hPa Calm   4.8 km/h 92 % 0 mm
03:52 24.3 °C 22.9 °C 1010 hPa East 1.6 km/h 4.8 km/h 92 % 0 mm
03:57 24.3 °C 23.1 °C 1010 hPa Calm   3.2 km/h 93 % 0 mm
04:02 24.2 °C 23 °C 1010 hPa ESE 1.6 km/h 3.2 km/h 93 % 0 mm
04:07 24.2 °C 23 °C 1010 hPa Calm   3.2 km/h 93 % 0 mm
04:12 24.2 °C 23 °C 1010 hPa Calm   1.6 km/h 93 % 0 mm
04:17 24.1 °C 22.9 °C 1010 hPa Calm   1.6 km/h 93 % 0 mm
04:22 24.1 °C 22.9 °C 1010 hPa Calm   3.2 km/h 93 % 0 mm
04:27 24 °C 22.8 °C 1010 hPa Calm   3.2 km/h 93 % 0 mm
04:32 23.9 °C 22.9 °C 1010 hPa Calm   3.2 km/h 94 % 0 mm
04:37 23.9 °C 22.9 °C 1010 hPa Calm   1.6 km/h 94 % 0 mm
04:42 23.9 °C 22.9 °C 1010 hPa Calm   1.6 km/h 94 % 0 mm
04:47 23.9 °C 22.9 °C 1010 hPa Calm   1.6 km/h 94 % 0 mm
04:52 23.9 °C 22.9 °C 1010 hPa Calm   1.6 km/h 94 % 0 mm
04:57 23.8 °C 22.8 °C 1010 hPa Calm   1.6 km/h 94 % 0 mm
05:02 23.8 °C 22.8 °C 1010 hPa Calm   1.6 km/h 94 % 0 mm
05:07 23.7 °C 22.7 °C 1010 hPa Calm   1.6 km/h 94 % 0 mm
05:12 23.7 °C 22.9 °C 1010 hPa Calm   1.6 km/h 95 % 0 mm
05:17 23.6 °C 22.8 °C 1010 hPa Calm   1.6 km/h 95 % 0 mm
05:22 23.6 °C 22.8 °C 1010 hPa Calm   1.6 km/h 95 % 0 mm
05:28 23.6 °C 22.8 °C 1010 hPa Calm   1.6 km/h 95 % 0 mm
05:33 23.7 °C 22.9 °C 1010.4 hPa Calm   1.6 km/h 95 % 0 mm
05:43 23.7 °C 22.9 °C 1010.4 hPa Calm   3.2 km/h 95 % 0 mm
05:48 23.7 °C 22.9 °C 1010.4 hPa Calm   3.2 km/h 95 % 0 mm
05:53 23.7 °C 22.9 °C 1010.4 hPa Calm   3.2 km/h 95 % 0 mm
05:58 23.7 °C 23 °C 1010.4 hPa Calm   1.6 km/h 96 % 0 mm
06:03 23.7 °C 23 °C 1010.7 hPa ENE 3.2 km/h 3.2 km/h 96 % 0 mm
06:08 23.7 °C 23 °C 1010.7 hPa Calm   3.2 km/h 96 % 0 mm
06:13 23.7 °C 23 °C 1010.4 hPa Calm   3.2 km/h 96 % 0 mm
06:18 23.7 °C 23 °C 1010.4 hPa Calm   3.2 km/h 96 % 0 mm
06:23 23.7 °C 23 °C 1010.4 hPa Calm   1.6 km/h 96 % 0 mm
06:28 23.7 °C 23 °C 1010.4 hPa Calm   1.6 km/h 96 % 0 mm
06:33 23.7 °C 23 °C 1010.4 hPa Calm   1.6 km/h 96 % 0 mm
06:38 23.7 °C 23 °C 1010.4 hPa Calm   1.6 km/h 96 % 0 mm
06:43 23.7 °C 23 °C 1010.4 hPa Calm   1.6 km/h 96 % 0 mm
06:48 23.8 °C 23.3 °C 1010.4 hPa Calm   1.6 km/h 97 % 0 mm
06:53 23.8 °C 23.3 °C 1010.7 hPa Calm   1.6 km/h 97 % 0 mm
06:58 23.8 °C 23.3 °C 1011.1 hPa Calm   1.6 km/h 97 % 0 mm
07:03 23.9 °C 23.4 °C 1011.1 hPa Calm   1.6 km/h 97 % 0 mm
07:08 24.1 °C 23.6 °C 1011.1 hPa ESE 1.6 km/h 4.8 km/h 97 % 0 mm
07:13 24.2 °C 23.7 °C 1011.1 hPa Calm   4.8 km/h 97 % 0 mm
07:18 24.5 °C 24 °C 1011.1 hPa Calm   4.8 km/h 97 % 0 mm
07:23 24.6 °C 23.9 °C 1011.4 hPa ESE 3.2 km/h 3.2 km/h 96 % 0 mm
07:28 24.6 °C 23.9 °C 1011.4 hPa SE 1.6 km/h 6.4 km/h 96 % 0 mm
07:33 24.6 °C 23.9 °C 1011.4 hPa ESE 3.2 km/h 6.4 km/h 96 % 0 mm
07:38 24.6 °C 23.9 °C 1011.4 hPa ESE 1.6 km/h 6.4 km/h 96 % 0 mm
07:43 24.8 °C 24.3 °C 1011.4 hPa Calm   6.4 km/h 97 % 0 mm
07:48 25.1 °C 24.6 °C 1011.4 hPa ESE 1.6 km/h 6.4 km/h 97 % 0 mm
07:53 25.4 °C 24.9 °C 1011.4 hPa Calm   6.4 km/h 97 % 0 mm
07:58 25.8 °C 25.1 °C 1011.4 hPa Calm   4.8 km/h 96 % 0 mm
08:03 26.2 °C 25.3 °C 1011.4 hPa ESE 3.2 km/h 4.8 km/h 95 % 0 mm
08:08 26.3 °C 25.3 °C 1011.4 hPa East 3.2 km/h 4.8 km/h 94 % 0 mm
08:13 26.4 °C 25.2 °C 1011.4 hPa NE 3.2 km/h 6.4 km/h 93 % 0 mm
08:15 26.4 °C 25.2 °C 1011.4 hPa SE 1.6 km/h 6.4 km/h 93 % 0 mm
08:20 26.5 °C 25.1 °C 1011.4 hPa Calm   6.4 km/h 92 % 0 mm
08:25 26.8 °C 25.4 °C 1011.7 hPa Calm   4.8 km/h 92 % 0 mm
08:30 27 °C 25.4 °C 1011.7 hPa ESE 1.6 km/h 6.4 km/h 91 % 0 mm
08:35 27.1 °C 25.5 °C 1011.7 hPa Calm   6.4 km/h 91 % 0 mm
08:40 27.2 °C 25.4 °C 1011.7 hPa East 8 km/h 9.7 km/h 90 % 0 mm
08:45 27.1 °C 25.1 °C 1011.7 hPa ESE 1.6 km/h 9.7 km/h 89 % 0 mm
08:50 27.1 °C 25.3 °C 1011.7 hPa Calm   9.7 km/h 90 % 0 mm
08:55 27.4 °C 25.6 °C 1011.7 hPa SSE 3.2 km/h 9.7 km/h 90 % 0 mm
09:00 27.6 °C 25.6 °C 1011.7 hPa East 4.8 km/h 8 km/h 89 % 0 mm
09:05 27.7 °C 25.7 °C 1011.7 hPa ESE 6.4 km/h 9.7 km/h 89 % 0 mm
09:10 27.9 °C 25.7 °C 1011.7 hPa SSE 8 km/h 9.7 km/h 88 % 0 mm
09:15 28.2 °C 25.8 °C 1012.1 hPa SE 3.2 km/h 9.7 km/h 87 % 0 mm
09:20 28.6 °C 25.8 °C 1011.7 hPa SE 4.8 km/h 9.7 km/h 85 % 0 mm
09:25 28.8 °C 26.4 °C 1012.1 hPa SSW 1.6 km/h 9.7 km/h 87 % 0 mm
09:30 29.3 °C 26.3 °C 1012.1 hPa SSW 1.6 km/h 9.7 km/h 84 % 0 mm
09:35 29.6 °C 26.2 °C 1012.1 hPa Calm   6.4 km/h 82 % 0 mm
09:39 29.7 °C 26.1 °C 1012.1 hPa SE 1.6 km/h 6.4 km/h 81 % 0 mm
09:44 29.7 °C 25.9 °C 1012.1 hPa Calm   8 km/h 80 % 0 mm
09:49 29.7 °C 25.9 °C 1012.1 hPa SSW 4.8 km/h 8 km/h 80 % 0 mm
09:54 29.9 °C 26.3 °C 1012.1 hPa SSW 4.8 km/h 8 km/h 81 % 0 mm
09:59 30.1 °C 26.1 °C 1012.1 hPa SE 6.4 km/h 11.3 km/h 79 % 0 mm
10:04 30.2 °C 25.7 °C 1012.1 hPa WNW 4.8 km/h 14.5 km/h 77 % 0 mm
10:09 30.3 °C 26 °C 1012.1 hPa SSW 3.2 km/h 14.5 km/h 78 % 0 mm
10:14 30.4 °C 26.3 °C 1011.7 hPa South 8 km/h 14.5 km/h 79 % 0 mm
10:19 30.6 °C 26.3 °C 1011.7 hPa South 1.6 km/h 14.5 km/h 78 % 0 mm
10:24 30.9 °C 26.4 °C 1011.7 hPa ESE 6.4 km/h 14.5 km/h 77 % 0 mm
10:29 31.3 °C 26.6 °C 1011.7 hPa South 3.2 km/h 11.3 km/h 76 % 0 mm
10:34 31.3 °C 26.1 °C 1011.7 hPa WNW 3.2 km/h 11.3 km/h 74 % 0 mm
10:39 31.1 °C 26.1 °C 1011.7 hPa South 1.6 km/h 11.3 km/h 75 % 0 mm
10:44 31 °C 25.8 °C 1011.7 hPa SE 9.7 km/h 12.9 km/h 74 % 0 mm
10:49 30.9 °C 26.2 °C 1011.4 hPa East 6.4 km/h 12.9 km/h 76 % 0 mm
10:54 31 °C 26 °C 1011.4 hPa SE 6.4 km/h 12.9 km/h 75 % 0 mm
10:59 31.2 °C 25.8 °C 1011.4 hPa South 9.7 km/h 14.5 km/h 73 % 0 mm
11:04 31.1 °C 25.9 °C 1011.4 hPa SE 1.6 km/h 14.5 km/h 74 % 0 mm
11:09 31.3 °C 25.9 °C 1011.4 hPa SSE 3.2 km/h 14.5 km/h 73 % 0 mm
11:14 31.2 °C 25.8 °C 1011.4 hPa SSW 9.7 km/h 12.9 km/h 73 % 0 mm
11:19 31.2 °C 25.8 °C 1011.4 hPa SSW 1.6 km/h 12.9 km/h 73 % 0 mm
11:24 31.4 °C 26 °C 1011.4 hPa SSE 9.7 km/h 12.9 km/h 73 % 0 mm
11:29 31.3 °C 25.6 °C 1011.4 hPa SW 8 km/h 14.5 km/h 72 % 0 mm
11:34 31.1 °C 25.5 °C 1011.4 hPa WNW 1.6 km/h 14.5 km/h 72 % 0 mm
11:39 31.4 °C 25.7 °C 1011.4 hPa SSE 3.2 km/h 14.5 km/h 72 % 0 mm
11:44 31.4 °C 25.7 °C 1011.4 hPa Calm   12.9 km/h 72 % 0 mm
11:49 31.4 °C 25.5 °C 1011.4 hPa SSE 4.8 km/h 9.7 km/h 71 % 0 mm
11:54 31.1 °C 25.5 °C 1011.7 hPa SE 8 km/h 14.5 km/h 72 % 0 mm
11:59 30.5 °C 25.6 °C 1011.7 hPa SSW 6.4 km/h 14.5 km/h 75 % 0 mm
12:04 30.2 °C 25.5 °C 1011.7 hPa SSE 4.8 km/h 14.5 km/h 76 % 0 mm
12:09 30.2 °C 25.7 °C 1011.7 hPa SSE 3.2 km/h 14.5 km/h 77 % 0 mm
12:14 30.3 °C 26 °C 1011.7 hPa SSW 3.2 km/h 14.5 km/h 78 % 0 mm
12:19 30.6 °C 26.1 °C 1011.7 hPa SSE 3.2 km/h 9.7 km/h 77 % 0 mm
12:24 30.8 °C 25.4 °C 1011.7 hPa SSE 3.2 km/h 9.7 km/h 73 % 0 mm
12:29 31.5 °C 27 °C 1011.4 hPa Calm   11.3 km/h 77 % 0 mm
12:34 32.3 °C 26.6 °C 1011.4 hPa SSW 11.3 km/h 11.3 km/h 72 % 0 mm
12:39 32.4 °C 26 °C 1011.4 hPa SSE 3.2 km/h 14.5 km/h 69 % 0 mm
12:44 32.6 °C 26.2 °C 1011.4 hPa ENE 4.8 km/h 14.5 km/h 69 % 0 mm
12:49 32.6 °C 25.2 °C 1011.4 hPa WNW 1.6 km/h 14.5 km/h 65 % 0 mm
12:54 32.4 °C 25.2 °C 1011.4 hPa South 11.3 km/h 14.5 km/h 66 % 0 mm
12:59 32.4 °C 25.2 °C 1011.4 hPa South 4.8 km/h 14.5 km/h 66 % 0 mm
13:04 32.6 °C 25.4 °C 1011.4 hPa SSW 9.7 km/h 14.5 km/h 66 % 0 mm
13:09 32.4 °C 25.2 °C 1011.4 hPa SW 4.8 km/h 20.9 km/h 66 % 0 mm
13:14 32.2 °C 25.3 °C 1011.4 hPa SW 6.4 km/h 20.9 km/h 67 % 0 mm
13:19 31.8 °C 25.2 °C 1011.4 hPa SSW 8 km/h 20.9 km/h 68 % 0 mm
13:24 31.7 °C 25.6 °C 1011.4 hPa SSE 11.3 km/h 14.5 km/h 70 % 0 mm
13:29 31.7 °C 25.6 °C 1011.4 hPa SW 9.7 km/h 14.5 km/h 70 % 0 mm
13:34 31.7 °C 25.6 °C 1011.1 hPa SSW 1.6 km/h 17.7 km/h 70 % 0 mm
13:39 31.9 °C 26.2 °C 1011.1 hPa South 11.3 km/h 17.7 km/h 72 % 0 mm
13:44 32.2 °C 26 °C 1011.1 hPa South 3.2 km/h 17.7 km/h 70 % 0 mm
13:49 32.4 °C 26.5 °C 1011.1 hPa SSW 6.4 km/h 14.5 km/h 71 % 0 mm
13:50 32.4 °C 26.5 °C 1011.1 hPa South 8 km/h 14.5 km/h 71 % 0 mm
13:55 32.7 °C 26 °C 1011.1 hPa SSW 8 km/h 14.5 km/h 68 % 0 mm
13:59 32.9 °C 26.2 °C 1011.1 hPa South 6.4 km/h 19.3 km/h 68 % 0 mm
14:05 33.2 °C 26.2 °C 1011.1 hPa SW 11.3 km/h 20.9 km/h 67 % 0 mm
14:10 33.4 °C 25.1 °C 1011.1 hPa South 16.1 km/h 20.9 km/h 62 % 0 mm
14:15 33.6 °C 25.6 °C 1011.1 hPa SSW 6.4 km/h 17.7 km/h 63 % 0 mm
14:20 33.6 °C 24.8 °C 1011.1 hPa SE 4.8 km/h 19.3 km/h 60 % 0 mm
14:25 33.4 °C 24.8 °C 1011.1 hPa West 6.4 km/h 20.9 km/h 61 % 0 mm
14:30 33.3 °C 25.3 °C 1011.1 hPa SSE 9.7 km/h 20.9 km/h 63 % 0 mm
14:35 33.3 °C 25.8 °C 1011.1 hPa SSW 8 km/h 20.9 km/h 65 % 0 mm
14:40 33.3 °C 25.8 °C 1011.1 hPa South 8 km/h 17.7 km/h 65 % 0 mm
14:45 33.5 °C 25.2 °C 1010.7 hPa SSE 12.9 km/h 17.7 km/h 62 % 0 mm
14:50 33.7 °C 25.7 °C 1010.7 hPa SW 11.3 km/h 17.7 km/h 63 % 0 mm
14:55 33.4 °C 25.1 °C 1010.7 hPa SW 8 km/h 17.7 km/h 62 % 0 mm
15:00 33 °C 25.3 °C 1010.7 hPa SSW 4.8 km/h 19.3 km/h 64 % 0 mm
15:05 32.7 °C 25.8 °C 1011.1 hPa SE 11.3 km/h 19.3 km/h 67 % 0 mm
15:10 32 °C 26.1 °C 1011.1 hPa SSW 8 km/h 24.1 km/h 71 % 0 mm
15:11 31.9 °C 26 °C 1011.1 hPa SSE 9.7 km/h 24.1 km/h 71 % 0 mm
15:16 31.8 °C 25.2 °C 1011.1 hPa SSW 11.3 km/h 24.1 km/h 68 % 0 mm
15:21 31.8 °C 24.9 °C 1011.1 hPa South 6.4 km/h 27.4 km/h 67 % 0 mm
15:26 31.9 °C 25.3 °C 1011.1 hPa SSW 17.7 km/h 27.4 km/h 68 % 0 mm
15:31 32.1 °C 25.9 °C 1011.1 hPa South 8 km/h 27.4 km/h 70 % 0 mm
15:36 32.2 °C 26 °C 1011.1 hPa SE 6.4 km/h 27.4 km/h 70 % 0 mm
15:41 32.3 °C 25.6 °C 1011.1 hPa SSW 9.7 km/h 27.4 km/h 68 % 0 mm
15:46 32.4 °C 25.7 °C 1010.7 hPa ESE 11.3 km/h 27.4 km/h 68 % 0 mm
15:51 32.5 °C 25.3 °C 1010.7 hPa SW 6.4 km/h 25.7 km/h 66 % 0 mm
15:56 32.7 °C 25.8 °C 1010.7 hPa South 8 km/h 25.7 km/h 67 % 0 mm
16:01 32.6 °C 25.7 °C 1010.7 hPa SSE 14.5 km/h 22.5 km/h 67 % 0 mm
16:06 32.7 °C 26 °C 1010.4 hPa SE 8 km/h 22.5 km/h 68 % 0 mm
16:11 32.7 °C 26.3 °C 1010.4 hPa ESE 11.3 km/h 20.9 km/h 69 % 0 mm
16:16 32.4 °C 26.2 °C 1010.4 hPa SE 6.4 km/h 19.3 km/h 70 % 0 mm
16:21 32.2 °C 26.3 °C 1010.4 hPa South 14.5 km/h 19.3 km/h 71 % 0 mm
16:26 32.2 °C 26 °C 1010.4 hPa ESE 14.5 km/h 20.9 km/h 70 % 0 mm
16:32 32.2 °C 26.3 °C 1010.4 hPa SW 8 km/h 20.9 km/h 71 % 0 mm
16:37 32.4 °C 26.2 °C 1010.4 hPa NE 8 km/h 20.9 km/h 70 % 0 mm
16:42 32.4 °C 26.2 °C 1010.4 hPa SSE 16.1 km/h 24.1 km/h 70 % 0 mm
16:47 32.4 °C 26 °C 1010 hPa SSE 11.3 km/h 24.1 km/h 69 % 0 mm
16:52 32.7 °C 26.3 °C 1010.4 hPa SSW 9.7 km/h 24.1 km/h 69 % 0 mm
16:57 32.7 °C 26.5 °C 1010.4 hPa SSE 11.3 km/h 22.5 km/h 70 % 0 mm
17:02 32.6 °C 25.9 °C 1010.4 hPa ESE 16.1 km/h 25.7 km/h 68 % 0 mm
17:07 32.4 °C 26 °C 1010.4 hPa South 14.5 km/h 25.7 km/h 69 % 0 mm
17:12 32.6 °C 25.9 °C 1010.4 hPa SSE 17.7 km/h 25.7 km/h 68 % 0 mm
17:17 32.7 °C 26 °C 1010 hPa SSE 6.4 km/h 20.9 km/h 68 % 0 mm
17:22 32.9 °C 25.7 °C 1010 hPa SE 8 km/h 20.9 km/h 66 % 0 mm
17:27 33.1 °C 26.1 °C 1010 hPa SE 12.9 km/h 19.3 km/h 67 % 0 mm
17:32 33.1 °C 25.9 °C 1010 hPa East 8 km/h 19.3 km/h 66 % 0 mm
17:37 33.2 °C 26.5 °C 1010 hPa ESE 9.7 km/h 19.3 km/h 68 % 0 mm
17:42 32.8 °C 25.9 °C 1010 hPa SE 11.3 km/h 20.9 km/h 67 % 0 mm
17:43 32.6 °C 25.7 °C 1010 hPa SE 19.3 km/h 20.9 km/h 67 % 0 mm
17:48 32.1 °C 25.7 °C 1010 hPa ESE 14.5 km/h 22.5 km/h 69 % 0 mm
17:53 32 °C 25.8 °C 1010 hPa South 6.4 km/h 22.5 km/h 70 % 0 mm
17:58 32.1 °C 25.9 °C 1010 hPa ESE 12.9 km/h 22.5 km/h 70 % 0 mm
18:03 32.2 °C 26 °C 1010 hPa SE 8 km/h 22.5 km/h 70 % 0 mm
18:04 32.2 °C 26 °C 1010 hPa South 3.2 km/h 22.5 km/h 70 % 0 mm
18:09 32.3 °C 26.1 °C 1010 hPa SSE 3.2 km/h 19.3 km/h 70 % 0 mm
18:14 32.2 °C 26 °C 1010 hPa SE 12.9 km/h 19.3 km/h 70 % 0 mm
18:19 32.2 °C 26 °C 1010 hPa South 6.4 km/h 19.3 km/h 70 % 0 mm
18:24 32.2 °C 26 °C 1010 hPa SSW 16.1 km/h 19.3 km/h 70 % 0 mm
18:29 32.2 °C 26 °C 1010 hPa SSE 11.3 km/h 19.3 km/h 70 % 0 mm
18:34 32.2 °C 25.8 °C 1010 hPa South 11.3 km/h 17.7 km/h 69 % 0 mm
18:39 32.1 °C 25.7 °C 1010 hPa SSE 9.7 km/h 17.7 km/h 69 % 0 mm
18:44 32 °C 25.8 °C 1010 hPa SSE 8 km/h 19.3 km/h 70 % 0 mm
18:49 31.9 °C 26 °C 1010 hPa ESE 9.7 km/h 19.3 km/h 71 % 0 mm
18:54 31.9 °C 26 °C 1010 hPa South 11.3 km/h 19.3 km/h 71 % 0 mm
18:59 31.8 °C 26.1 °C 1010 hPa SE 9.7 km/h 19.3 km/h 72 % 0 mm
19:04 31.7 °C 26 °C 1010 hPa South 8 km/h 19.3 km/h 72 % 0 mm
19:09 31.7 °C 26.7 °C 1010 hPa ESE 14.5 km/h 17.7 km/h 75 % 0 mm
19:14 31.3 °C 26.6 °C 1010 hPa SE 6.4 km/h 16.1 km/h 76 % 0 mm
19:19 31.1 °C 26.8 °C 1010 hPa South 12.9 km/h 20.9 km/h 78 % 0 mm
19:24 30.9 °C 26.8 °C 1010.4 hPa SE 9.7 km/h 20.9 km/h 79 % 0 mm
19:29 30.8 °C 26.7 °C 1010.4 hPa SE 8 km/h 20.9 km/h 79 % 0 mm
19:34 30.7 °C 26.6 °C 1010.4 hPa SE 11.3 km/h 19.3 km/h 79 % 0 mm
19:39 30.6 °C 26.5 °C 1010.4 hPa SE 12.9 km/h 19.3 km/h 79 % 0 mm
19:44 30.4 °C 26.6 °C 1010.4 hPa ESE 9.7 km/h 24.1 km/h 80 % 0 mm
19:49 30.3 °C 26.5 °C 1010.4 hPa SE 9.7 km/h 24.1 km/h 80 % 0 mm
19:54 30.3 °C 26.5 °C 1010.4 hPa SE 6.4 km/h 24.1 km/h 80 % 0 mm
19:59 30.3 °C 26.5 °C 1010.4 hPa SE 11.3 km/h 24.1 km/h 80 % 0 mm
20:04 30.3 °C 26.5 °C 1010.4 hPa ESE 11.3 km/h 19.3 km/h 80 % 0 mm
20:09 30.2 °C 26.4 °C 1010.4 hPa South 9.7 km/h 19.3 km/h 80 % 0 mm
20:14 30.2 °C 26.4 °C 1010.4 hPa SSE 9.7 km/h 19.3 km/h 80 % 0 mm
20:19 30.1 °C 26.3 °C 1010.4 hPa SSE 11.3 km/h 19.3 km/h 80 % 0 mm
20:24 30.1 °C 26.3 °C 1010.4 hPa SSE 3.2 km/h 19.3 km/h 80 % 0 mm
20:30 30 °C 26.4 °C 1010.4 hPa SE 4.8 km/h 17.7 km/h 81 % 0 mm
20:35 29.9 °C 26.3 °C 1010.4 hPa ESE 14.5 km/h 17.7 km/h 81 % 0 mm
20:40 29.8 °C 26.2 °C 1010.4 hPa SE 9.7 km/h 17.7 km/h 81 % 0 mm
20:45 29.7 °C 25.9 °C 1010.4 hPa SE 11.3 km/h 19.3 km/h 80 % 0 mm
20:50 29.7 °C 25.9 °C 1010.4 hPa SSW 9.7 km/h 19.3 km/h 80 % 0 mm
20:55 29.6 °C 25.8 °C 1010.4 hPa SSE 8 km/h 22.5 km/h 80 % 0 mm
21:00 29.6 °C 25.8 °C 1010.7 hPa SSE 11.3 km/h 22.5 km/h 80 % 0 mm
21:05 29.5 °C 25.5 °C 1010.7 hPa SE 4.8 km/h 22.5 km/h 79 % 0 mm
21:10 29.4 °C 25.4 °C 1010.7 hPa SE 9.7 km/h 19.3 km/h 79 % 0 mm
21:15 29.4 °C 25.4 °C 1010.7 hPa ESE 12.9 km/h 17.7 km/h 79 % 0 mm
21:21 29.3 °C 25.3 °C 1010.7 hPa South 8 km/h 17.7 km/h 79 % 0 mm
21:26 29.3 °C 25.5 °C 1010.7 hPa SE 6.4 km/h 17.7 km/h 80 % 0 mm
21:31 29.2 °C 25.4 °C 1010.7 hPa ESE 8 km/h 17.7 km/h 80 % 0 mm
21:36 29.1 °C 25.5 °C 1011.1 hPa SE 3.2 km/h 17.7 km/h 81 % 0 mm
21:41 29.1 °C 25.5 °C 1011.1 hPa South 6.4 km/h 17.7 km/h 81 % 0 mm
21:46 28.9 °C 25.5 °C 1011.1 hPa East 12.9 km/h 17.7 km/h 82 % 0 mm
21:51 28.9 °C 25.7 °C 1011.1 hPa SE 11.3 km/h 17.7 km/h 83 % 0 mm
21:56 28.8 °C 25.6 °C 1011.1 hPa SE 8 km/h 17.7 km/h 83 % 0 mm
22:01 28.7 °C 25.7 °C 1011.1 hPa SSE 9.7 km/h 16.1 km/h 84 % 0 mm
22:06 28.6 °C 25.6 °C 1011.1 hPa SSE 6.4 km/h 16.1 km/h 84 % 0 mm
22:11 28.6 °C 25.6 °C 1011.4 hPa SE 9.7 km/h 19.3 km/h 84 % 0 mm
22:16 28.6 °C 25.8 °C 1011.4 hPa SE 6.4 km/h 19.3 km/h 85 % 0 mm
22:21 28.5 °C 25.7 °C 1011.4 hPa SW 4.8 km/h 20.9 km/h 85 % 0 mm
22:26 28.4 °C 25.6 °C 1011.4 hPa SSE 8 km/h 20.9 km/h 85 % 0 mm
22:31 28.4 °C 25.6 °C 1011.4 hPa SE 6.4 km/h 20.9 km/h 85 % 0 mm
22:36 28.3 °C 25.5 °C 1011.4 hPa SSE 11.3 km/h 19.3 km/h 85 % 0 mm
22:41 28.3 °C 25.7 °C 1011.4 hPa SSE 8 km/h 19.3 km/h 86 % 0 mm
22:46 28.3 °C 25.7 °C 1011.4 hPa SE 9.7 km/h 16.1 km/h 86 % 0 mm
22:51 28.2 °C 25.6 °C 1011.4 hPa SE 11.3 km/h 16.1 km/h 86 % 0 mm
22:56 28.2 °C 25.6 °C 1011.4 hPa SSE 4.8 km/h 16.1 km/h 86 % 0 mm
23:01 28.1 °C 25.5 °C 1011.7 hPa ESE 12.9 km/h 16.1 km/h 86 % 0 mm
23:06 28.1 °C 25.7 °C 1011.4 hPa SE 9.7 km/h 17.7 km/h 87 % 0 mm
23:11 28.1 °C 25.7 °C 1011.4 hPa SSE 3.2 km/h 17.7 km/h 87 % 0 mm
23:16 28.1 °C 25.7 °C 1011.7 hPa SSE 8 km/h 17.7 km/h 87 % 0 mm
23:19 28.1 °C 25.7 °C 1011.7 hPa SE 4.8 km/h 17.7 km/h 87 % 0 mm
23:24 28 °C 25.6 °C 1011.7 hPa SE 9.7 km/h 19.3 km/h 87 % 0 mm
23:29 28.1 °C 25.7 °C 1011.7 hPa SE 8 km/h 19.3 km/h 87 % 0 mm
23:34 28.1 °C 25.9 °C 1011.7 hPa SSW 6.4 km/h 19.3 km/h 88 % 0 mm
23:39 28.1 °C 25.9 °C 1011.7 hPa SSE 6.4 km/h 16.1 km/h 88 % 0 mm
23:44 28 °C 25.8 °C 1011.7 hPa South 8 km/h 16.1 km/h 88 % 0 mm
23:49 27.9 °C 25.7 °C 1012.1 hPa SSW 9.7 km/h 17.7 km/h 88 % 0 mm
23:54 27.8 °C 25.6 °C 1012.1 hPa SSW 3.2 km/h 17.7 km/h 88 % 0 mm
23:59 27.8 °C 25.6 °C 1012.1 hPa SE 16.1 km/h 17.7 km/h 88 % 0 mm
Spring, Texas: Villages of Bridgestone
Compliments of Weather Underground - 2.75 mb

Script developed by  Jim McMurry - jmcmurry@mwt.net Adapted for the template by  Wim van der Kuil - Leuven-Template.eu

You find our weather info also at:

UK Metoffice

WeatherCloud

Weather Underground

Mid-South Weather Network

AWEKAS

Citizen Weather Observer Program (CWOP)

HAMweather, WeatherForYou, PWS Weather

Equipment we use:

Weather-station
Davis Vantage Vue

Weather-program
Meteohub

Weather-server
Debian 7.9 x86 (Guest)

Provider
DreamHost

Davis Vantage Vue

Meteohub

Debian 7.9 x86 (Guest)

DreamHost